THOR ABLESTAR DEB, 467

Orbit data source: Space-Track

THOR ABLESTAR DEB, 467 is space debris in LEO originally from a launch on Thu, 29 Jun 1961 UTC launched from the Air Force Eastern Test Range (AFETR). Debris objects in space refer to the collection of defunct objects orbiting the Earth. Examples of debris include non-operational satellites, rocket bodies, and fragments generated from explosions, collisions, or faulty payload assembly.

Loading next visibility...
Identifier
467, 1961-015FD
Orbit
LEO
Country
Flag of USUS
Related business
Manufacturer
Unknown
Mission
Spacecraft
Bus & Motor
Unknown
Mass
Unknown
Launch date (UTC)
1961-06-29 (65 years ago)
Launch vehicle
Unknown
Launch site
Air Force Eastern Test Range (AFETR)
Object type
Payload
Rocket body
Debris
Shape & HBR
Unknown shape, 0.1 m
Radar Cross Section
Medium (>0.1 m² and <1 m²)

Expand to show TLE details & history
Last TLE update: 1 day ago

TLE from 1 day ago
0 THOR ABLESTAR DEB
1 00467U 61015FD  26164.15038132  .00000719  00000-0  90641-3 0  9992
2 00467  66.5572  97.3562 0246845 320.6682  37.6671 13.57430148280396
Epoch: 2026-06-13T03:36Z
TLE epoch observation values (Epoch: 2026-06-13T03:36:32.946Z)
Latitude
Longitude
141.74932°
Altitude
903.753 km
Speed
7.472 km/s
True Right ascension
06h 29m 25s
True Declination
0° 00' 00"
Sunlit
Object was in daylight at epoch
Visualization orbit readout
Latitude
Unknown
Longitude
Unknown
Altitude
Unknown
Speed
Unknown
Apparent Right ascension
Unknown
Apparent Declination
Unknown
Sunlit
N/A
Visualization observer readout
Local Sidereal Time
15:38:08
Azimuth
Unknown
Elevation
Unknown
Doppler factor
Unknown
Orbital elements
Apogee altitude
1,226.691 km
Perigee altitude
860.292 km
Semi-major axis
7,421.629 km
Eccentricity
0.02468
Inclination
66.5572°
RAAN
97.3562°
Arg. of periapsis
320.6682°
True anomaly
39.43855°
Mean anomaly
37.6671°
Eccentric anomaly
38.54847°
Mean motion
3.39464 °/min
Orbital period
106.05 mins
BSTAR
0.00090641
Loading maneuver chart data...
Computing Atmospheric mass density...

Documentation

Showing up to 5 results
|